| time (UTC) | temp F | wind direction | speed MPH | gust MPH | rain 1hr in | rain 24hr in | rain mn in | humidity % | barometer mb |
| 20260508202116 | 56 | 258 | 9.0 | 11.0 | 0.00 | 0.00 | 0.00 | 7 | 1023.3 |
| 20260508201116 | 57 | 237 | 10.0 | 14.0 | 0.00 | 0.00 | 0.00 | 7 | 1023.2 |
| 20260508200116 | 57 | 264 | 10.0 | 14.0 | 0.00 | 0.00 | 0.00 | 7 | 1023.1 |
| 20260508195116 | 57 | 238 | 4.0 | 11.0 | 0.00 | 0.00 | 0.00 | 7 | 1023.0 |
| 20260508194116 | 56 | 227 | 10.0 | 12.0 | 0.00 | 0.00 | 0.00 | 7 | 1022.9 |
| 20260508193116 | 56 | 241 | 11.0 | 11.0 | 0.00 | 0.00 | 0.00 | 7 | 1022.6 |
| 20260508192116 | 56 | 235 | 5.0 | 8.0 | 0.00 | 0.00 | 0.00 | 7 | 1022.6 |
| 20260508191116 | 56 | 282 | 4.0 | 10.0 | 0.00 | 0.00 | 0.00 | 7 | 1022.5 |
| 20260508190116 | 56 | 239 | 3.0 | 11.0 | 0.00 | 0.00 | 0.00 | 7 | 1022.5 |
| 20260508185116 | 56 | 245 | 6.0 | 9.0 | 0.00 | 0.00 | 0.00 | 7 | 1022.5 |
| 20260508184116 | 56 | 235 | 2.0 | 10.0 | 0.00 | 0.00 | 0.00 | 7 | 1022.4 |
| 20260508183116 | 56 | 255 | 11.0 | 11.0 | 0.00 | 0.00 | 0.00 | 7 | 1022.4 |
| 20260508182116 | 56 | 241 | 9.0 | 11.0 | 0.00 | 0.00 | 0.00 | 7 | 1022.3 |
| 20260508181116 | 56 | 252 | 8.0 | 9.0 | 0.00 | 0.00 | 0.00 | 7 | 1022.2 |
| 20260508180116 | 56 | 254 | 8.0 | 9.0 | 0.00 | 0.00 | 0.00 | 6 | 1022.0 |
| 20260508175116 | 56 | 244 | 5.0 | 9.0 | 0.00 | 0.00 | 0.00 | 6 | 1022.0 |
| 20260508174116 | 56 | 248 | 6.0 | 10.0 | 0.00 | 0.00 | 0.00 | 6 | 1022.0 |
| 20260508173116 | 56 | 251 | 6.0 | 11.0 | 0.00 | 0.00 | 0.00 | 6 | 1022.0 |
| 20260508172116 | 56 | 252 | 10.0 | 12.0 | 0.00 | 0.00 | 0.00 | 6 | 1021.9 |
| 20260508171116 | 56 | 251 | 9.0 | 9.0 | 0.00 | 0.00 | 0.00 | 6 | 1022.0 |
| 20260508170116 | 56 | 245 | 2.0 | 8.0 | 0.00 | 0.00 | 0.00 | 6 | 1022.1 |
| 20260508165116 | 56 | 251 | 3.0 | 8.0 | 0.00 | 0.00 | 0.00 | 6 | 1022.0 |
| 20260508164116 | 56 | 239 | 1.0 | 9.0 | 0.00 | 0.00 | 0.00 | 6 | 1022.1 |
| 20260508163116 | 56 | 238 | 4.0 | 12.0 | 0.00 | 0.00 | 0.00 | 6 | 1022.1 |
| 20260508162116 | 56 | 245 | 5.0 | 9.0 | 0.00 | 0.00 | 0.00 | 7 | 1022.1 |
| 20260508161116 | 55 | 247 | 8.0 | 11.0 | 0.00 | 0.00 | 0.00 | 7 | 1022.1 |
| 20260508160115 | 56 | 228 | 10.0 | 10.0 | 0.00 | 0.00 | 0.00 | 6 | 1022.0 |
| 20260508155115 | 56 | 243 | 4.0 | 8.0 | 0.00 | 0.00 | 0.00 | 6 | 1022.0 |
| 20260508154115 | 56 | 254 | 7.0 | 10.0 | 0.00 | 0.00 | 0.00 | 6 | 1022.0 |
| 20260508153115 | 56 | 217 | 4.0 | 10.0 | 0.00 | 0.00 | 0.00 | 6 | 1022.1 |
| 20260508152115 | 56 | 229 | 2.0 | 13.0 | 0.00 | 0.00 | 0.00 | 6 | 1022.0 |
| 20260508151115 | 56 | 249 | 4.0 | 7.0 | 0.00 | 0.00 | 0.00 | 6 | 1022.0 |
| 20260508150114 | 56 | 247 | 3.0 | 13.0 | 0.00 | 0.00 | 0.00 | 6 | 1022.0 |
| 20260508145114 | 56 | 252 | 9.0 | 10.0 | 0.00 | 0.00 | 0.00 | 6 | 1022.0 |
| 20260508144114 | 56 | 237 | 6.0 | 12.0 | 0.00 | 0.00 | 0.00 | 6 | 1022.0 |
| 20260508143114 | 57 | 249 | 8.0 | 11.0 | 0.00 | 0.00 | 0.00 | 6 | 1022.0 |
| 20260508142114 | 57 | 214 | 5.0 | 11.0 | 0.00 | 0.00 | 0.00 | 6 | 1022.0 |
| 20260508141114 | 57 | 244 | 11.0 | 13.0 | 0.00 | 0.00 | 0.00 | 6 | 1022.1 |
| 20260508140113 | 57 | 235 | 10.0 | 10.0 | 0.00 | 0.00 | 0.00 | 6 | 1022.0 |
| 20260508135113 | 57 | 240 | 7.0 | 12.0 | 0.00 | 0.00 | 0.00 | 6 | 1021.9 |
| 20260508134113 | 57 | 251 | 8.0 | 10.0 | 0.00 | 0.00 | 0.00 | 6 | 1021.8 |
| 20260508133113 | 57 | 254 | 8.0 | 12.0 | 0.00 | 0.00 | 0.00 | 6 | 1021.8 |
| 20260508132113 | 58 | 237 | 3.0 | 12.0 | 0.00 | 0.00 | 0.00 | 6 | 1021.9 |
| 20260508131113 | 58 | 221 | 10.0 | 13.0 | 0.00 | 0.00 | 0.00 | 6 | 1021.9 |
| 20260508130113 | 58 | 239 | 4.0 | 9.0 | 0.00 | 0.00 | 0.00 | 6 | 1021.8 |
| 20260508125112 | 58 | 237 | 7.0 | 9.0 | 0.00 | 0.00 | 0.00 | 6 | 1021.8 |
| 20260508124112 | 58 | 254 | 3.0 | 11.0 | 0.00 | 0.00 | 0.00 | 6 | 1021.7 |
| 20260508123111 | 58 | 239 | 5.0 | 9.0 | 0.00 | 0.00 | 0.00 | 6 | 1021.8 |
| 20260508122111 | 58 | 233 | 6.0 | 11.0 | 0.00 | 0.00 | 0.00 | 6 | 1021.7 |
| 20260508121111 | 58 | 247 | 3.0 | 8.0 | 0.00 | 0.00 | 0.00 | 6 | 1021.8 |
| 20260508120110 | 58 | 250 | 4.0 | 10.0 | 0.00 | 0.00 | 0.00 | 6 | 1021.8 |
| 20260508115110 | 57 | 249 | 10.0 | 12.0 | 0.00 | 0.00 | 0.00 | 6 | 1021.7 |
| 20260508114110 | 58 | 243 | 5.0 | 11.0 | 0.00 | 0.00 | 0.00 | 6 | 1021.7 |
| 20260508113110 | 58 | 250 | 11.0 | 12.0 | 0.00 | 0.00 | 0.00 | 6 | 1021.7 |
| 20260508112110 | 58 | 256 | 5.0 | 11.0 | 0.00 | 0.00 | 0.00 | 6 | 1021.6 |
| 20260508111110 | 58 | 235 | 4.0 | 7.0 | 0.00 | 0.00 | 0.00 | 6 | 1021.5 |
| 20260508110110 | 58 | 239 | 6.0 | 11.0 | 0.00 | 0.00 | 0.00 | 6 | 1021.3 |
| 20260508105110 | 58 | 240 | 11.0 | 12.0 | 0.00 | 0.00 | 0.00 | 6 | 1021.3 |
| 20260508104110 | 58 | 261 | 3.0 | 10.0 | 0.00 | 0.00 | 0.00 | 6 | 1021.1 |
| 20260508103110 | 58 | 240 | 9.0 | 12.0 | 0.00 | 0.00 | 0.00 | 6 | 1021.1 |
| 20260508102110 | 58 | 256 | 4.0 | 7.0 | 0.00 | 0.00 | 0.00 | 6 | 1021.1 |
| 20260508101110 | 59 | 247 | 4.0 | 11.0 | 0.00 | 0.00 | 0.00 | 6 | 1020.9 |
| 20260508100110 | 59 | 205 | 1.0 | 8.0 | 0.00 | 0.00 | 0.00 | 6 | 1020.8 |
| 20260508095110 | 59 | 236 | 2.0 | 10.0 | 0.00 | 0.00 | 0.00 | 6 | 1020.8 |
| 20260508094110 | 59 | 249 | 8.0 | 11.0 | 0.00 | 0.00 | 0.00 | 6 | 1020.6 |
| 20260508093110 | 59 | 249 | 6.0 | 13.0 | 0.00 | 0.00 | 0.00 | 6 | 1020.4 |
| 20260508092110 | 59 | 233 | 5.0 | 11.0 | 0.00 | 0.00 | 0.00 | 6 | 1020.2 |
| 20260508091110 | 60 | 232 | 11.0 | 14.0 | 0.00 | 0.00 | 0.00 | 6 | 1020.2 |
| 20260508090110 | 60 | 256 | 7.0 | 16.0 | 0.00 | 0.00 | 0.00 | 6 | 1020.1 |
| 20260508085110 | 60 | 230 | 9.0 | 13.0 | 0.00 | 0.00 | 0.00 | 6 | 1019.9 |
| 20260508084110 | 60 | 256 | 5.0 | 11.0 | 0.00 | 0.00 | 0.00 | 6 | 1019.7 |
| 20260508083110 | 60 | 236 | 2.0 | 8.0 | 0.00 | 0.00 | 0.00 | 6 | 1019.6 |
| 20260508082110 | 60 | 241 | 2.0 | 3.0 | 0.00 | 0.00 | 0.00 | 5 | 1019.4 |
| 20260508081110 | 61 | 258 | 2.0 | 11.0 | 0.00 | 0.00 | 0.00 | 5 | 1019.3 |
| 20260508080109 | 61 | 247 | 3.0 | 11.0 | 0.00 | 0.00 | 0.00 | 5 | 1019.2 |
| 20260508075109 | 62 | 262 | 5.0 | 13.0 | 0.00 | 0.00 | 0.00 | 5 | 1019.2 |
| 20260508074109 | 62 | 231 | 3.0 | 11.0 | 0.00 | 0.00 | 0.00 | 5 | 1018.9 |
| 20260508073109 | 62 | 243 | 1.0 | 5.0 | 0.00 | 0.00 | 0.00 | 5 | 1018.7 |
| 20260508072109 | 62 | 234 | 3.0 | 4.0 | 0.00 | 0.00 | 0.00 | 5 | 1018.5 |
| 20260508071108 | 63 | 256 | 5.0 | 11.0 | 0.00 | 0.00 | 0.00 | 5 | 1018.2 |
| 20260508070108 | 63 | 185 | 8.0 | 11.0 | 0.00 | 0.00 | 0.00 | 5 | 1017.9 |
| 20260508065107 | 64 | 256 | 8.0 | 8.0 | 0.00 | 0.00 | 0.00 | 5 | 1017.8 |
| 20260508064107 | 64 | 206 | 5.0 | 12.0 | 0.00 | 0.00 | 0.00 | 4 | 1017.6 |
| 20260508063107 | 64 | 262 | 9.0 | 9.0 | 0.00 | 0.00 | 0.00 | 5 | 1017.4 |
| 20260508062107 | 65 | 191 | 3.0 | 7.0 | 0.00 | 0.00 | 0.00 | 4 | 1017.3 |
| 20260508061107 | 65 | 239 | 5.0 | 13.0 | 0.00 | 0.00 | 0.00 | 4 | 1017.0 |
| 20260508060107 | 65 | 224 | 9.0 | 15.0 | 0.00 | 0.00 | 0.00 | 4 | 1016.7 |
| 20260508055107 | 65 | 254 | 1.0 | 4.0 | 0.00 | 0.00 | 0.00 | 4 | 1016.6 |
| 20260508054107 | 66 | 210 | 9.0 | 12.0 | 0.00 | 0.00 | 0.00 | 4 | 1016.3 |
| 20260508053107 | 66 | 238 | 5.0 | 8.0 | 0.00 | 0.00 | 0.00 | 4 | 1016.3 |
| 20260508052107 | 66 | 260 | 9.0 | 11.0 | 0.00 | 0.00 | 0.00 | 4 | 1016.4 |
| 20260508051107 | 67 | 185 | 4.0 | 14.0 | 0.00 | 0.00 | 0.00 | 4 | 1016.2 |
| 20260508050107 | 66 | 302 | 8.0 | 10.0 | 0.00 | 0.00 | 0.00 | 4 | 1016.0 |
| 20260508045107 | 66 | 245 | 8.0 | 18.0 | 0.00 | 0.00 | 0.00 | 4 | 1016.1 |
| 20260508044107 | 67 | 263 | 10.0 | 18.0 | 0.00 | 0.00 | 0.00 | 4 | 1016.1 |
| 20260508043107 | 67 | 226 | 2.0 | 12.0 | 0.00 | 0.00 | 0.00 | 4 | 1015.9 |
| 20260508042107 | 67 | 253 | 4.0 | 13.0 | 0.00 | 0.00 | 0.00 | 4 | 1015.9 |
| 20260508041107 | 67 | 245 | 8.0 | 16.0 | 0.00 | 0.00 | 0.00 | 4 | 1015.9 |
| 20260508040106 | 67 | 262 | 9.0 | 17.0 | 0.00 | 0.00 | 0.00 | 4 | 1015.8 |
| 20260508035106 | 67 | 222 | 17.0 | 17.0 | 0.00 | 0.00 | 0.00 | 4 | 1015.8 |
| 20260508034106 | 67 | 235 | 3.0 | 11.0 | 0.00 | 0.00 | 0.00 | 4 | 1015.8 |
| 20260508033106 | 67 | 222 | 4.0 | 13.0 | 0.00 | 0.00 | 0.00 | 4 | 1015.7 |
| 20260508032106 | 67 | 238 | 5.0 | 19.0 | 0.00 | 0.00 | 0.00 | 4 | 1015.8 |
| 20260508031106 | 67 | 191 | 7.0 | 16.0 | 0.00 | 0.00 | 0.00 | 4 | 1015.9 |
| 20260508030106 | 67 | 223 | 9.0 | 9.0 | 0.00 | 0.00 | 0.00 | 4 | 1016.2 |
| 20260508025106 | 66 | 251 | 6.0 | 13.0 | 0.00 | 0.00 | 0.00 | 4 | 1016.2 |
| 20260508024106 | 66 | 287 | 8.0 | 10.0 | 0.00 | 0.00 | 0.00 | 4 | 1016.3 |
| 20260508023106 | 66 | 239 | 5.0 | 12.0 | 0.00 | 0.00 | 0.00 | 4 | 1016.6 |
| 20260508022106 | 65 | 249 | 8.0 | 11.0 | 0.00 | 0.00 | 0.00 | 4 | 1016.7 |
| 20260508021106 | 65 | 242 | 12.0 | 17.0 | 0.00 | 0.00 | 0.00 | 4 | 1016.9 |
| 20260508020106 | 65 | 260 | 12.0 | 19.0 | 0.00 | 0.00 | 0.00 | 4 | 1017.0 |
| 20260508015106 | 64 | 247 | 5.0 | 15.0 | 0.00 | 0.00 | 0.00 | 5 | 1017.1 |
| 20260508014106 | 63 | 230 | 9.0 | 14.0 | 0.00 | 0.00 | 0.00 | 5 | 1017.2 |
| 20260508013106 | 63 | 231 | 11.0 | 17.0 | 0.00 | 0.00 | 0.00 | 5 | 1017.2 |
| 20260508012106 | 63 | 233 | 5.0 | 14.0 | 0.00 | 0.00 | 0.00 | 5 | 1017.5 |
| 20260508011106 | 62 | 215 | 5.0 | 17.0 | 0.00 | 0.00 | 0.00 | 5 | 1017.5 |
| 20260508010106 | 62 | 252 | 3.0 | 9.0 | 0.00 | 0.00 | 0.00 | 5 | 1017.9 |
| 20260508005106 | 61 | 254 | 11.0 | 17.0 | 0.00 | 0.00 | 0.00 | 5 | 1018.1 |
| 20260508004106 | 61 | 245 | 8.0 | 16.0 | 0.00 | 0.00 | 0.00 | 5 | 1017.9 |
| 20260508003106 | 60 | 224 | 7.0 | 11.0 | 0.00 | 0.00 | 0.00 | 5 | 1018.0 |
| 20260508002106 | 60 | 226 | 6.0 | 13.0 | 0.00 | 0.00 | 0.00 | 5 | 1017.9 |
| 20260508001106 | 60 | 245 | 6.0 | 12.0 | 0.00 | 0.00 | 0.00 | 5 | 1018.3 |
| 20260508000106 | 59 | 251 | 17.0 | 19.0 | 0.00 | 0.00 | 0.00 | 5 | 1018.1 |
| 20260507235106 | 59 | 234 | 6.0 | 15.0 | 0.00 | 0.00 | 0.00 | 5 | 1018.1 |
| 20260507234106 | 58 | 255 | 7.0 | 14.0 | 0.00 | 0.00 | 0.00 | 5 | 1018.1 |
| 20260507233106 | 58 | 235 | 9.0 | 9.0 | 0.00 | 0.00 | 0.00 | 5 | 1018.0 |
| 20260507232106 | 57 | 253 | 9.0 | 14.0 | 0.00 | 0.00 | 0.00 | 5 | 1018.0 |
| 20260507231106 | 57 | 267 | 1.0 | 7.0 | 0.00 | 0.00 | 0.00 | 5 | 1018.0 |
| 20260507230106 | 56 | 270 | 4.0 | 12.0 | 0.00 | 0.00 | 0.00 | 5 | 1018.0 |
| 20260507225106 | 55 | 267 | 4.0 | 8.0 | 0.00 | 0.00 | 0.00 | 6 | 1017.9 |
| 20260507224106 | 55 | 271 | 3.0 | 9.0 | 0.00 | 0.00 | 0.00 | 5 | 1017.9 |
| 20260507223106 | 54 | 235 | 10.0 | 11.0 | 0.00 | 0.00 | 0.00 | 6 | 1017.9 |
| 20260507222106 | 54 | 224 | 5.0 | 11.0 | 0.00 | 0.00 | 0.00 | 6 | 1017.8 |
| 20260507221106 | 53 | 270 | 2.0 | 12.0 | 0.00 | 0.00 | 0.00 | 6 | 1017.8 |
| 20260507220106 | 52 | 218 | 6.0 | 11.0 | 0.00 | 0.00 | 0.00 | 6 | 1017.7 |
| 20260507215106 | 52 | 0 | 0.0 | 5.0 | 0.00 | 0.00 | 0.00 | 6 | 1017.7 |
| 20260507214106 | 51 | 215 | 4.0 | 10.0 | 0.00 | 0.00 | 0.00 | 6 | 1017.8 |
| 20260507213106 | 51 | 249 | 8.0 | 8.0 | 0.00 | 0.00 | 0.00 | 6 | 1017.7 |
| 20260507212106 | 50 | 235 | 4.0 | 8.0 | 0.00 | 0.00 | 0.00 | 6 | 1017.8 |
| 20260507211106 | 50 | 218 | 3.0 | 9.0 | 0.00 | 0.00 | 0.00 | 6 | 1017.7 |
| 20260507210106 | 49 | 264 | 7.0 | 9.0 | 0.00 | 0.00 | 0.00 | 6 | 1017.8 |
| 20260507205106 | 48 | 271 | 4.0 | 9.0 | 0.00 | 0.00 | 0.00 | 6 | 1017.7 |
| 20260507204106 | 48 | 241 | 4.0 | 7.0 | 0.00 | 0.00 | 0.00 | 6 | 1017.5 |
| 20260507203106 | 48 | 215 | 1.0 | 4.0 | 0.00 | 0.00 | 0.00 | 6 | 1017.5 |